Location: Capel Gartheli
(52.1833°N, 4.0667°W)
Time: 10:58:05
(UTC+00:00)

Cosmos 2322 Rocket - Pass Details

Date: 18 February 2020
Orbit: 833 x 851 km, 71.0° (Epoch: 08 April)

Event Time Altitude Azimuth Distance (km) Brightness Sun altitude
Exits shadow 05:24:03 - 326° (NNW) 2,606 4.5 -19.4°
Reaches altitude 10° 05:24:54 10° 334° (NNW) 2,490 4.4 -19.3°
Maximum altitude 05:26:48 12° 354° (N) 2,378 4.5 -19.0°
Drops below altitude 10° 05:28:42 10° 14° (NNE) 2,490 4.9 -18.7°
Sets 05:33:11 0° 46° (NE) 3,425 6.2 -18.0°
